EAG5501 SBKP-SBEG

Flight info

Callsign EAG5501
Flight time 3h 23m
Altitude 36000
Route VUPOG UM417 UMGUP DCT IRUMO
Aircraft B738/M-SDE1FGHILORVWXY/HB1

Departure

Time 2026-05-08 15:57
Airport Viracopos International Airport (SBKP)

Arrival

Time 2026-05-08 19:21
Airport Eduardo Gomes International Airport (SBEG)
Time Latitude Longitude Altitude Speed Heading
2026-05-08 15:52 -23.00969 -47.13597 2159 ft 0 kts 127°
2026-05-08 15:52 -23.00966 -47.13596 2155 ft 4 kts 77°
2026-05-08 15:52 -23.00965 -47.13620 2152 ft 4 kts 95°
2026-05-08 15:53 -23.00972 -47.13643 2151 ft 4 kts 39°
2026-05-08 15:53 -23.00994 -47.13658 2153 ft 4 kts 33°
2026-05-08 15:53 -23.01004 -47.13666 2152 ft 1 kts 38°
2026-05-08 15:54 -23.00982 -47.13657 2152 ft 9 kts
2026-05-08 15:54 -23.00914 -47.13707 2159 ft 16 kts 332°
2026-05-08 15:54 -23.00822 -47.13654 2155 ft 17 kts 92°
2026-05-08 15:55 -23.00886 -47.13555 2159 ft 17 kts 130°
2026-05-08 15:55 -23.01139 -47.13208 2158 ft 40 kts 127°
2026-05-08 15:55 -23.01315 -47.12960 2154 ft 42 kts 127°
2026-05-08 15:56 -23.01360 -47.12800 2157 ft 8 kts 13°
2026-05-08 15:56 -23.01298 -47.12817 2157 ft 12 kts 326°
2026-05-08 15:56 -23.01211 -47.12852 2153 ft 21 kts 352°
2026-05-08 15:56 -23.01041 -47.13031 2157 ft 59 kts 308°
2026-05-08 15:57 -23.00642 -47.13587 2152 ft 124 kts 308°
2026-05-08 15:57 -23.00033 -47.14475 2311 ft 160 kts 310°
2026-05-08 15:57 -22.99313 -47.15517 2667 ft 183 kts 314°
2026-05-08 15:57 -22.98523 -47.16420 3936 ft 152 kts 324°
2026-05-08 15:58 -22.97597 -47.17061 4496 ft 171 kts 330°
2026-05-08 15:58 -22.96514 -47.17766 4983 ft 193 kts 329°
2026-05-08 15:58 -22.95282 -47.18582 5389 ft 222 kts 328°
2026-05-08 15:58 -22.93903 -47.19503 5962 ft 242 kts 328°
2026-05-08 15:59 -22.92424 -47.20496 6679 ft 252 kts 328°
2026-05-08 15:59 -22.90883 -47.21427 7601 ft 255 kts 340°
2026-05-08 15:59 -22.89140 -47.21748 8496 ft 260 kts 351°
2026-05-08 15:59 -22.87319 -47.21976 9316 ft 266 kts 352°
2026-05-08 16:00 -22.85469 -47.22197 10182 ft 269 kts 352°
2026-05-08 16:00 -22.83562 -47.22416 10748 ft 283 kts 352°
2026-05-08 16:00 -22.81566 -47.22642 11352 ft 292 kts 353°
2026-05-08 16:00 -22.79531 -47.22868 12154 ft 295 kts 353°
2026-05-08 16:01 -22.77502 -47.23093 12869 ft 300 kts 353°
2026-05-08 16:01 -22.75405 -47.23323 13575 ft 304 kts 353°
2026-05-08 16:01 -22.73280 -47.23556 14236 ft 308 kts 352°
2026-05-08 16:01 -22.71154 -47.23789 14855 ft 311 kts 352°
2026-05-08 16:02 -22.68977 -47.24027 15482 ft 315 kts 352°
2026-05-08 16:02 -22.66781 -47.24267 16099 ft 318 kts 352°
2026-05-08 16:02 -22.64562 -47.24509 16720 ft 321 kts 352°
2026-05-08 16:02 -22.62328 -47.24753 17321 ft 325 kts 352°
2026-05-08 16:03 -22.60093 -47.24997 17914 ft 328 kts 352°
2026-05-08 16:03 -22.57804 -47.25246 18439 ft 332 kts 352°
2026-05-08 16:03 -22.55486 -47.25499 18941 ft 334 kts 352°
2026-05-08 16:03 -22.53153 -47.25754 19434 ft 337 kts 352°
2026-05-08 16:04 -22.50854 -47.26004 19926 ft 339 kts 351°
2026-05-08 16:04 -22.48498 -47.26261 20418 ft 342 kts 351°
2026-05-08 16:04 -22.46115 -47.26520 20898 ft 344 kts 351°
2026-05-08 16:04 -22.43717 -47.26781 21367 ft 347 kts 351°
2026-05-08 16:05 -22.41303 -47.27044 21862 ft 349 kts 350°
2026-05-08 16:05 -22.38896 -47.27305 22310 ft 352 kts 350°
2026-05-08 16:05 -22.36450 -47.27571 22770 ft 354 kts 350°
2026-05-08 16:05 -22.33977 -47.27839 23177 ft 358 kts 350°
2026-05-08 16:06 -22.31486 -47.28111 23593 ft 361 kts 349°
2026-05-08 16:06 -22.29073 -47.28755 23966 ft 355 kts 332°
2026-05-08 16:06 -22.27030 -47.30198 24328 ft 353 kts 316°
2026-05-08 16:06 -22.25184 -47.31968 24656 ft 356 kts 316°
2026-05-08 16:07 -22.23344 -47.33768 25038 ft 358 kts 316°
2026-05-08 16:07 -22.21511 -47.35593 25402 ft 360 kts 315°
2026-05-08 16:07 -22.19697 -47.37417 25762 ft 362 kts 315°
2026-05-08 16:07 -22.17858 -47.39279 26130 ft 363 kts 315°
2026-05-08 16:08 -22.16007 -47.41157 26521 ft 364 kts 315°
2026-05-08 16:08 -22.14151 -47.43043 26830 ft 368 kts 315°
2026-05-08 16:08 -22.12281 -47.44943 27172 ft 370 kts 314°
2026-05-08 16:08 -22.10422 -47.46831 27517 ft 371 kts 314°
2026-05-08 16:09 -22.08529 -47.48753 27846 ft 374 kts 314°
2026-05-08 16:09 -22.07274 -47.50028 28060 ft 375 kts 314°
2026-05-08 16:09 -22.04741 -47.52598 28488 ft 378 kts 314°
2026-05-08 16:09 -22.02824 -47.54543 28805 ft 380 kts 314°
2026-05-08 16:10 -22.00892 -47.56501 29118 ft 382 kts 314°
2026-05-08 16:10 -21.98945 -47.58475 29423 ft 384 kts 314°
2026-05-08 16:10 -21.97012 -47.60433 29718 ft 386 kts 314°
2026-05-08 16:10 -21.95048 -47.62422 29996 ft 388 kts 314°
2026-05-08 16:11 -21.93074 -47.64421 30263 ft 390 kts 314°
2026-05-08 16:11 -21.91100 -47.66419 30520 ft 391 kts 314°
2026-05-08 16:11 -21.89110 -47.68432 30771 ft 393 kts 314°
2026-05-08 16:11 -21.87109 -47.70455 31028 ft 394 kts 314°
2026-05-08 16:12 -21.85101 -47.72484 31256 ft 396 kts 314°
2026-05-08 16:12 -21.83106 -47.74500 31521 ft 397 kts 314°
2026-05-08 16:12 -21.81084 -47.76543 31775 ft 398 kts 314°
2026-05-08 16:12 -21.79739 -47.77900 31937 ft 399 kts 314°
2026-05-08 16:13 -21.77041 -47.80623 32278 ft 401 kts 314°
2026-05-08 16:13 -21.75663 -47.82013 32465 ft 401 kts 313°
2026-05-08 16:13 -21.73641 -47.84053 32724 ft 403 kts 313°
2026-05-08 16:13 -21.70922 -47.86793 33025 ft 405 kts 313°
2026-05-08 16:14 -21.68859 -47.88871 33248 ft 406 kts 313°
2026-05-08 16:14 -21.67489 -47.90251 33405 ft 407 kts 313°
2026-05-08 16:14 -21.65407 -47.92347 33626 ft 409 kts 313°
2026-05-08 16:14 -21.63323 -47.94444 33852 ft 410 kts 313°
2026-05-08 16:15 -21.61236 -47.96543 34043 ft 412 kts 313°
2026-05-08 16:15 -21.59161 -47.98629 34204 ft 414 kts 313°
2026-05-08 16:15 -21.57054 -48.00747 34370 ft 415 kts 313°
2026-05-08 16:15 -21.54941 -48.02871 34572 ft 416 kts 313°
2026-05-08 16:16 -21.52831 -48.04989 34756 ft 417 kts 313°
2026-05-08 16:16 -21.50702 -48.07126 34923 ft 418 kts 313°
2026-05-08 16:16 -21.48594 -48.09242 35094 ft 420 kts 313°
2026-05-08 16:16 -21.46451 -48.11391 35265 ft 421 kts 313°
2026-05-08 16:17 -21.44300 -48.13548 35425 ft 422 kts 313°
2026-05-08 16:17 -21.42146 -48.15706 35571 ft 423 kts 313°
2026-05-08 16:17 -21.40010 -48.17846 35693 ft 425 kts 313°
2026-05-08 16:17 -21.37841 -48.20018 35853 ft 426 kts 313°
2026-05-08 16:18 -21.35674 -48.22187 35967 ft 428 kts 313°
2026-05-08 16:18 -21.33492 -48.24370 35969 ft 428 kts 313°
2026-05-08 16:18 -21.29170 -48.28691 35958 ft 426 kts 313°
2026-05-08 16:19 -21.24822 -48.33035 35959 ft 426 kts 313°
2026-05-08 16:19 -21.20500 -48.37349 35962 ft 427 kts 313°
2026-05-08 16:20 -21.16160 -48.41677 35963 ft 427 kts 313°
2026-05-08 16:20 -21.11804 -48.46017 35959 ft 426 kts 313°
2026-05-08 16:21 -21.07483 -48.50320 35957 ft 426 kts 313°
2026-05-08 16:21 -21.03119 -48.54661 35955 ft 426 kts 313°
2026-05-08 16:22 -20.98800 -48.58954 35952 ft 426 kts 313°
2026-05-08 16:22 -20.95886 -48.61848 35957 ft 426 kts 313°
2026-05-08 16:23 -20.90108 -48.67582 35958 ft 426 kts 313°
2026-05-08 16:23 -20.85752 -48.71902 35960 ft 426 kts 313°
2026-05-08 16:24 -20.81420 -48.76194 35950 ft 426 kts 313°
2026-05-08 16:24 -20.77061 -48.80510 35956 ft 426 kts 313°
2026-05-08 16:25 -20.72516 -48.84569 35957 ft 430 kts 320°
2026-05-08 16:25 -20.67610 -48.88271 35949 ft 430 kts 320°
2026-05-08 16:26 -20.62705 -48.91950 35943 ft 431 kts 320°
2026-05-08 16:26 -20.57822 -48.95607 35953 ft 432 kts 320°
2026-05-08 16:27 -20.52880 -48.99305 35948 ft 432 kts 320°
2026-05-08 16:27 -20.47978 -49.02970 35948 ft 432 kts 320°
2026-05-08 16:28 -20.43037 -49.06662 35941 ft 432 kts 320°
2026-05-08 16:28 -20.38134 -49.10321 35956 ft 433 kts 320°
2026-05-08 16:29 -20.33184 -49.14013 35948 ft 432 kts 320°
2026-05-08 16:29 -20.28271 -49.17675 35947 ft 433 kts 320°
2026-05-08 16:30 -20.23353 -49.21337 35945 ft 433 kts 320°
2026-05-08 16:30 -20.18407 -49.25018 35944 ft 434 kts 320°
2026-05-08 16:31 -20.13475 -49.28685 35946 ft 434 kts 320°
2026-05-08 16:31 -20.08511 -49.32373 35941 ft 433 kts 320°
2026-05-08 16:32 -20.03586 -49.36029 35944 ft 433 kts 320°
2026-05-08 16:32 -19.98640 -49.39698 35941 ft 434 kts 320°
2026-05-08 16:33 -19.93683 -49.43372 35946 ft 434 kts 320°
2026-05-08 16:33 -19.88718 -49.47049 35946 ft 434 kts 320°
2026-05-08 16:34 -19.83782 -49.50702 35949 ft 434 kts 320°
2026-05-08 16:34 -19.78827 -49.54366 35951 ft 433 kts 320°
2026-05-08 16:35 -19.73869 -49.58030 35946 ft 433 kts 320°
2026-05-08 16:35 -19.68939 -49.61670 35946 ft 434 kts 320°
2026-05-08 16:36 -19.63986 -49.65324 35942 ft 433 kts 320°
2026-05-08 16:36 -19.59032 -49.68976 35940 ft 433 kts 320°
2026-05-08 16:37 -19.54061 -49.72638 35943 ft 436 kts 320°
2026-05-08 16:37 -19.49115 -49.76279 35954 ft 435 kts 320°
2026-05-08 16:38 -19.44137 -49.79941 35950 ft 434 kts 320°
2026-05-08 16:38 -19.39206 -49.83566 35950 ft 434 kts 320°
2026-05-08 16:39 -19.34235 -49.87216 35942 ft 435 kts 320°
2026-05-08 16:39 -19.29237 -49.90881 35945 ft 436 kts 320°
2026-05-08 16:40 -19.24270 -49.94525 35954 ft 436 kts 320°
2026-05-08 16:40 -19.19275 -49.98186 35946 ft 436 kts 320°
2026-05-08 16:41 -19.14299 -50.01830 35943 ft 435 kts 320°
2026-05-08 16:42 -19.06852 -50.07278 35949 ft 436 kts 320°
2026-05-08 16:42 -19.01859 -50.10927 35947 ft 436 kts 320°
2026-05-08 16:43 -18.96875 -50.14567 35946 ft 436 kts 320°
2026-05-08 16:43 -18.91885 -50.18209 35942 ft 436 kts 320°
2026-05-08 16:44 -18.86920 -50.21830 35946 ft 435 kts 321°
2026-05-08 16:44 -18.81933 -50.25464 35939 ft 435 kts 321°
2026-05-08 16:45 -18.76955 -50.29089 35941 ft 435 kts 321°
2026-05-08 16:45 -18.71992 -50.32701 35943 ft 435 kts 321°
2026-05-08 16:46 -18.67002 -50.36329 35945 ft 435 kts 321°
2026-05-08 16:46 -18.62002 -50.39962 35943 ft 435 kts 321°
2026-05-08 16:47 -18.57033 -50.43570 35944 ft 435 kts 321°
2026-05-08 16:47 -18.52044 -50.47191 35945 ft 435 kts 321°
2026-05-08 16:48 -18.47081 -50.50787 35931 ft 435 kts 321°
2026-05-08 16:48 -18.42087 -50.54402 35948 ft 435 kts 321°
2026-05-08 16:49 -18.37088 -50.58019 35952 ft 435 kts 321°
2026-05-08 16:49 -18.32123 -50.61607 35950 ft 435 kts 321°
2026-05-08 16:50 -18.27112 -50.65228 35952 ft 435 kts 321°
2026-05-08 16:50 -18.22221 -50.68759 35961 ft 435 kts 321°
2026-05-08 16:51 -18.17219 -50.72368 35954 ft 435 kts 321°
2026-05-08 16:51 -18.12258 -50.75943 35954 ft 435 kts 321°
2026-05-08 16:52 -18.07259 -50.79546 35962 ft 435 kts 321°
2026-05-08 16:52 -18.02284 -50.83127 35948 ft 435 kts 321°
2026-05-08 16:53 -17.94784 -50.88522 35961 ft 435 kts 321°
2026-05-08 16:53 -17.89819 -50.92090 35960 ft 435 kts 321°
2026-05-08 16:54 -17.84817 -50.95681 35967 ft 435 kts 321°
2026-05-08 16:54 -17.79818 -50.99267 35959 ft 434 kts 321°
2026-05-08 16:55 -17.74841 -51.02835 35972 ft 435 kts 321°
2026-05-08 16:55 -17.69834 -51.06422 35971 ft 435 kts 321°
2026-05-08 16:56 -17.64858 -51.09985 35975 ft 435 kts 321°
2026-05-08 16:56 -17.59853 -51.13565 35974 ft 435 kts 321°
2026-05-08 16:57 -17.54843 -51.17147 35978 ft 435 kts 321°
2026-05-08 16:57 -17.49878 -51.20695 35972 ft 435 kts 321°
2026-05-08 16:58 -17.44860 -51.24278 35971 ft 435 kts 321°
2026-05-08 16:58 -17.39843 -51.27858 35975 ft 435 kts 321°
2026-05-08 16:59 -17.34867 -51.31410 35978 ft 435 kts 321°
2026-05-08 16:59 -17.29870 -51.34976 35971 ft 436 kts 322°
2026-05-08 17:00 -17.24847 -51.38559 35976 ft 436 kts 321°
2026-05-08 17:00 -17.19866 -51.42109 35969 ft 435 kts 321°
2026-05-08 17:01 -17.14875 -51.45665 35975 ft 436 kts 321°
2026-05-08 17:01 -17.09857 -51.49236 35968 ft 436 kts 322°
2026-05-08 17:02 -17.05677 -51.52210 35972 ft 437 kts 322°
2026-05-08 17:02 -16.99825 -51.56371 35970 ft 437 kts 322°
2026-05-08 17:03 -16.95640 -51.59344 35962 ft 437 kts 322°
2026-05-08 17:03 -16.90619 -51.62909 35963 ft 437 kts 322°
2026-05-08 17:04 -16.85591 -51.66476 35963 ft 437 kts 322°
2026-05-08 17:04 -16.80586 -51.70024 35968 ft 438 kts 322°
2026-05-08 17:05 -16.75542 -51.73595 35958 ft 438 kts 322°
2026-05-08 17:05 -16.70496 -51.77166 35961 ft 438 kts 322°
2026-05-08 17:06 -16.65477 -51.80715 35965 ft 438 kts 322°
2026-05-08 17:06 -16.60428 -51.84284 35956 ft 438 kts 322°
2026-05-08 17:07 -16.55395 -51.87838 35956 ft 439 kts 322°
2026-05-08 17:07 -16.50325 -51.91416 35957 ft 439 kts 322°
2026-05-08 17:08 -16.45301 -51.94959 35959 ft 439 kts 322°
2026-05-08 17:08 -16.40232 -51.98532 35951 ft 439 kts 322°
2026-05-08 17:09 -16.35159 -52.02106 35947 ft 440 kts 322°
2026-05-08 17:09 -16.30100 -52.05657 35950 ft 440 kts 323°
2026-05-08 17:10 -16.24967 -52.09113 35946 ft 440 kts 323°
2026-05-08 17:10 -16.19856 -52.12561 35947 ft 440 kts 323°
2026-05-08 17:11 -16.14705 -52.16037 35926 ft 440 kts 323°
2026-05-08 17:11 -16.09565 -52.19503 35951 ft 441 kts 323°
2026-05-08 17:12 -16.04425 -52.22967 35962 ft 441 kts 323°
2026-05-08 17:12 -15.99274 -52.26436 35972 ft 441 kts 323°
2026-05-08 17:13 -15.94140 -52.29891 35986 ft 441 kts 323°
2026-05-08 17:13 -15.88992 -52.33354 35985 ft 440 kts 323°
2026-05-08 17:14 -15.83871 -52.36796 35996 ft 441 kts 323°
2026-05-08 17:14 -15.78708 -52.40264 35994 ft 441 kts 323°
2026-05-08 17:15 -15.73575 -52.43711 35983 ft 441 kts 323°
2026-05-08 17:15 -15.68413 -52.47175 35972 ft 441 kts 323°
2026-05-08 17:16 -15.63257 -52.50632 35929 ft 441 kts 323°
2026-05-08 17:16 -15.58102 -52.54087 35945 ft 442 kts 323°
2026-05-08 17:17 -15.52973 -52.57522 35938 ft 441 kts 323°
2026-05-08 17:17 -15.47811 -52.60977 35944 ft 441 kts 323°
2026-05-08 17:18 -15.42645 -52.64433 35940 ft 441 kts 323°
2026-05-08 17:18 -15.37507 -52.67868 35938 ft 442 kts 324°
2026-05-08 17:19 -15.32319 -52.71334 35939 ft 442 kts 324°
2026-05-08 17:19 -15.27142 -52.74791 35938 ft 442 kts 324°
2026-05-08 17:20 -15.22007 -52.78218 35937 ft 441 kts 324°
2026-05-08 17:20 -15.16843 -52.81662 35930 ft 441 kts 324°
2026-05-08 17:21 -15.11706 -52.85086 35937 ft 441 kts 324°
2026-05-08 17:21 -15.06540 -52.88528 35931 ft 441 kts 324°
2026-05-08 17:22 -15.01382 -52.91962 35929 ft 441 kts 324°
2026-05-08 17:22 -14.96216 -52.95399 35929 ft 441 kts 324°
2026-05-08 17:23 -14.91048 -52.98836 35933 ft 441 kts 324°
2026-05-08 17:23 -14.85896 -53.02260 35931 ft 442 kts 324°
2026-05-08 17:24 -14.80726 -53.05695 35933 ft 442 kts 324°
2026-05-08 17:24 -14.75582 -53.09110 35934 ft 442 kts 324°
2026-05-08 17:25 -14.70337 -53.12456 35944 ft 443 kts 327°
2026-05-08 17:25 -14.64976 -53.15557 35920 ft 443 kts 327°
2026-05-08 17:26 -14.59611 -53.18695 35938 ft 444 kts 327°
2026-05-08 17:26 -14.54229 -53.21845 35927 ft 444 kts 327°
2026-05-08 17:27 -14.48830 -53.25002 35936 ft 444 kts 327°
2026-05-08 17:27 -14.43485 -53.28127 35928 ft 444 kts 327°
2026-05-08 17:28 -14.38119 -53.31262 35921 ft 444 kts 327°
2026-05-08 17:28 -14.32723 -53.34413 35937 ft 445 kts 327°
2026-05-08 17:29 -14.27375 -53.37535 35935 ft 444 kts 327°
2026-05-08 17:29 -14.21978 -53.40683 35934 ft 444 kts 327°
2026-05-08 17:30 -14.16631 -53.43800 35920 ft 444 kts 327°
2026-05-08 17:30 -14.11226 -53.46949 35930 ft 445 kts 327°
2026-05-08 17:31 -14.05869 -53.50069 35921 ft 445 kts 327°
2026-05-08 17:31 -14.00462 -53.53216 35929 ft 445 kts 327°
2026-05-08 17:32 -13.95069 -53.56353 35918 ft 445 kts 327°
2026-05-08 17:32 -13.89706 -53.59467 35927 ft 445 kts 327°
2026-05-08 17:33 -13.84291 -53.62609 35904 ft 446 kts 327°
2026-05-08 17:33 -13.78867 -53.65754 35922 ft 447 kts 327°
2026-05-08 17:34 -13.73487 -53.68873 35917 ft 447 kts 327°
2026-05-08 17:34 -13.68055 -53.72020 35915 ft 447 kts 327°
2026-05-08 17:35 -13.62631 -53.75160 35917 ft 447 kts 327°
2026-05-08 17:35 -13.57247 -53.78276 35902 ft 447 kts 327°
2026-05-08 17:36 -13.51801 -53.81426 35916 ft 448 kts 327°
2026-05-08 17:36 -13.46371 -53.84565 35914 ft 448 kts 327°
2026-05-08 17:37 -13.40963 -53.87690 35903 ft 448 kts 327°
2026-05-08 17:37 -13.35517 -53.90835 35914 ft 448 kts 327°
2026-05-08 17:38 -13.30113 -53.93953 35906 ft 449 kts 327°
2026-05-08 17:38 -13.24657 -53.97101 35908 ft 450 kts 328°
2026-05-08 17:39 -13.19190 -54.00253 35907 ft 449 kts 328°
2026-05-08 17:39 -13.13775 -54.03374 35910 ft 449 kts 328°
2026-05-08 17:40 -13.08310 -54.06522 35900 ft 449 kts 328°
2026-05-08 17:40 -13.02878 -54.09649 35901 ft 450 kts 328°
2026-05-08 17:41 -12.97399 -54.12802 35895 ft 451 kts 328°
2026-05-08 17:41 -12.91948 -54.15934 35901 ft 451 kts 328°
2026-05-08 17:42 -12.86467 -54.19082 35901 ft 450 kts 328°
2026-05-08 17:42 -12.80994 -54.22224 35904 ft 451 kts 328°
2026-05-08 17:43 -12.75553 -54.25346 35902 ft 451 kts 328°
2026-05-08 17:43 -12.70057 -54.28498 35904 ft 452 kts 328°
2026-05-08 17:44 -12.64570 -54.31644 35902 ft 452 kts 328°
2026-05-08 17:44 -12.59118 -54.34768 35901 ft 452 kts 328°
2026-05-08 17:45 -12.53634 -54.37909 35900 ft 452 kts 328°
2026-05-08 17:45 -12.48138 -54.41055 35903 ft 452 kts 328°
2026-05-08 17:46 -12.42666 -54.44187 35894 ft 452 kts 328°
2026-05-08 17:46 -12.37179 -54.47325 35894 ft 451 kts 328°
2026-05-08 17:47 -12.31726 -54.50443 35897 ft 451 kts 328°
2026-05-08 17:47 -12.27157 -54.53053 35897 ft 451 kts 328°
2026-05-08 17:48 -12.20784 -54.56694 35897 ft 452 kts 328°
2026-05-08 17:48 -12.15291 -54.59830 35895 ft 452 kts 328°
2026-05-08 17:49 -12.09786 -54.62971 35896 ft 452 kts 328°
2026-05-08 17:49 -12.04289 -54.66107 35896 ft 452 kts 328°
2026-05-08 17:50 -11.98831 -54.69219 35897 ft 452 kts 328°
2026-05-08 17:50 -11.93319 -54.72359 35895 ft 452 kts 328°
2026-05-08 17:51 -11.88746 -54.74964 35896 ft 452 kts 328°
2026-05-08 17:51 -11.82345 -54.78609 35894 ft 452 kts 328°
2026-05-08 17:52 -11.77768 -54.81213 35894 ft 452 kts 328°
2026-05-08 17:53 -11.69522 -54.85903 35885 ft 452 kts 328°
2026-05-08 17:53 -11.64014 -54.89034 35897 ft 453 kts 328°
2026-05-08 17:54 -11.58536 -54.92147 35886 ft 453 kts 328°
2026-05-08 17:54 -11.53028 -54.95275 35888 ft 453 kts 328°
2026-05-08 17:55 -11.47536 -54.98392 35893 ft 453 kts 328°
2026-05-08 17:55 -11.42005 -55.01531 35885 ft 453 kts 328°
2026-05-08 17:56 -11.36503 -55.04651 35898 ft 454 kts 328°
2026-05-08 17:56 -11.30975 -55.07785 35894 ft 454 kts 328°
2026-05-08 17:57 -11.25479 -55.10899 35891 ft 454 kts 328°
2026-05-08 17:57 -11.19946 -55.14033 35885 ft 454 kts 328°
2026-05-08 17:58 -11.14416 -55.17164 35881 ft 454 kts 328°
2026-05-08 17:58 -11.08898 -55.20287 35892 ft 453 kts 328°
2026-05-08 17:59 -11.03412 -55.23389 35888 ft 453 kts 328°
2026-05-08 17:59 -10.97875 -55.26518 35887 ft 453 kts 328°
2026-05-08 18:00 -10.92395 -55.29613 35885 ft 452 kts 328°
2026-05-08 18:00 -10.84148 -55.34269 35887 ft 452 kts 328°
2026-05-08 18:01 -10.78679 -55.37356 35884 ft 451 kts 328°
2026-05-08 18:01 -10.73178 -55.40459 35884 ft 451 kts 328°
2026-05-08 18:02 -10.67686 -55.43555 35880 ft 451 kts 328°
2026-05-08 18:02 -10.62223 -55.46634 35881 ft 451 kts 328°
2026-05-08 18:03 -10.56728 -55.49729 35874 ft 451 kts 328°
2026-05-08 18:03 -10.51259 -55.52809 35877 ft 451 kts 328°
2026-05-08 18:04 -10.45769 -55.55899 35876 ft 451 kts 328°
2026-05-08 18:04 -10.40275 -55.58990 35877 ft 451 kts 328°
2026-05-08 18:05 -10.34790 -55.62075 35868 ft 450 kts 328°
2026-05-08 18:05 -10.29331 -55.65144 35866 ft 451 kts 328°
2026-05-08 18:06 -10.23848 -55.68225 35874 ft 451 kts 328°
2026-05-08 18:06 -10.18351 -55.71314 35874 ft 451 kts 328°
2026-05-08 18:07 -10.12852 -55.74402 35876 ft 451 kts 328°
2026-05-08 18:07 -10.07383 -55.77472 35876 ft 451 kts 328°
2026-05-08 18:08 -10.01919 -55.80539 35885 ft 452 kts 328°
2026-05-08 18:08 -9.96395 -55.83637 35900 ft 452 kts 328°
2026-05-08 18:09 -9.90911 -55.86713 35917 ft 452 kts 328°
2026-05-08 18:09 -9.85398 -55.89803 35934 ft 452 kts 328°
2026-05-08 18:10 -9.79900 -55.92884 35886 ft 452 kts 328°
2026-05-08 18:10 -9.74423 -55.95951 35892 ft 452 kts 328°
2026-05-08 18:11 -9.68898 -55.99031 35892 ft 452 kts 329°
2026-05-08 18:11 -9.63357 -56.02047 35897 ft 452 kts 329°
2026-05-08 18:12 -9.57850 -56.05051 35897 ft 452 kts 329°
2026-05-08 18:12 -9.52301 -56.08076 35896 ft 452 kts 329°
2026-05-08 18:13 -9.46788 -56.11081 35896 ft 452 kts 329°
2026-05-08 18:13 -9.41245 -56.14102 35900 ft 452 kts 329°
2026-05-08 18:14 -9.35716 -56.17113 35895 ft 451 kts 329°
2026-05-08 18:14 -9.30217 -56.20107 35899 ft 451 kts 329°
2026-05-08 18:15 -9.24685 -56.23118 35902 ft 451 kts 329°
2026-05-08 18:15 -9.19150 -56.26130 35900 ft 451 kts 329°
2026-05-08 18:16 -9.13632 -56.29131 35896 ft 451 kts 329°
2026-05-08 18:16 -9.08128 -56.32123 35897 ft 451 kts 329°
2026-05-08 18:17 -9.02572 -56.35143 35901 ft 452 kts 329°
2026-05-08 18:17 -8.97048 -56.38144 35904 ft 451 kts 329°
2026-05-08 18:18 -8.91520 -56.41147 35903 ft 451 kts 329°
2026-05-08 18:18 -8.86012 -56.44137 35901 ft 451 kts 329°
2026-05-08 18:19 -8.80463 -56.47149 35902 ft 452 kts 329°
2026-05-08 18:19 -8.74936 -56.50148 35907 ft 452 kts 329°
2026-05-08 18:20 -8.69393 -56.53154 35907 ft 452 kts 329°
2026-05-08 18:20 -8.63828 -56.56171 35904 ft 452 kts 329°
2026-05-08 18:21 -8.58307 -56.59164 35911 ft 452 kts 329°
2026-05-08 18:21 -8.52741 -56.62179 35906 ft 453 kts 329°
2026-05-08 18:22 -8.47226 -56.65167 35919 ft 454 kts 329°
2026-05-08 18:22 -8.41648 -56.68187 35919 ft 453 kts 329°
2026-05-08 18:23 -8.36117 -56.71181 35926 ft 453 kts 329°
2026-05-08 18:23 -8.30540 -56.74199 35924 ft 453 kts 329°
2026-05-08 18:24 -8.25013 -56.77188 35922 ft 453 kts 329°
2026-05-08 18:24 -8.19412 -56.80217 35915 ft 455 kts 329°
2026-05-08 18:25 -8.13852 -56.83223 35918 ft 455 kts 329°
2026-05-08 18:25 -8.08264 -56.86246 35920 ft 455 kts 328°
2026-05-08 18:26 -8.03224 -56.89964 35907 ft 452 kts 320°
2026-05-08 18:26 -7.98250 -56.93853 35923 ft 452 kts 320°
2026-05-08 18:27 -7.94119 -56.97094 35913 ft 452 kts 320°
2026-05-08 18:27 -7.88330 -57.01637 35914 ft 453 kts 320°
2026-05-08 18:28 -7.83363 -57.05534 35913 ft 453 kts 320°
2026-05-08 18:28 -7.78414 -57.09415 35911 ft 452 kts 320°
2026-05-08 18:29 -7.73433 -57.13320 35906 ft 453 kts 320°
2026-05-08 18:29 -7.68482 -57.17201 35902 ft 453 kts 320°
2026-05-08 18:30 -7.63504 -57.21101 35906 ft 453 kts 320°
2026-05-08 18:30 -7.58547 -57.24984 35910 ft 454 kts 320°
2026-05-08 18:31 -7.53559 -57.28889 35904 ft 454 kts 320°
2026-05-08 18:31 -7.48571 -57.32794 35906 ft 454 kts 320°
2026-05-08 18:32 -7.43608 -57.36678 35905 ft 454 kts 320°
2026-05-08 18:32 -7.38609 -57.40589 35906 ft 454 kts 320°
2026-05-08 18:33 -7.33638 -57.44477 35898 ft 455 kts 320°
2026-05-08 18:33 -7.28636 -57.48389 35898 ft 455 kts 320°
2026-05-08 18:34 -7.23636 -57.52297 35904 ft 455 kts 320°
2026-05-08 18:34 -7.18623 -57.56214 35897 ft 455 kts 320°
2026-05-08 18:35 -7.13635 -57.60111 35902 ft 455 kts 320°
2026-05-08 18:35 -7.08628 -57.64021 35906 ft 455 kts 320°
2026-05-08 18:36 -7.03660 -57.67900 35894 ft 456 kts 320°
2026-05-08 18:36 -6.98633 -57.71824 35900 ft 456 kts 320°
2026-05-08 18:37 -6.93617 -57.75738 35899 ft 456 kts 320°
2026-05-08 18:37 -6.88612 -57.79643 35902 ft 456 kts 320°
2026-05-08 18:38 -6.83596 -57.83555 35902 ft 456 kts 320°
2026-05-08 18:38 -6.78606 -57.87445 35899 ft 456 kts 320°
2026-05-08 18:39 -6.73581 -57.91362 35894 ft 456 kts 320°
2026-05-08 18:39 -6.68592 -57.95250 35891 ft 456 kts 320°
2026-05-08 18:40 -6.64419 -57.98502 35896 ft 456 kts 320°
2026-05-08 18:40 -6.58570 -58.03057 35898 ft 456 kts 320°
2026-05-08 18:41 -6.54399 -58.06305 35895 ft 456 kts 320°
2026-05-08 18:41 -6.48561 -58.10850 35896 ft 456 kts 320°
2026-05-08 18:42 -6.44391 -58.14095 35890 ft 457 kts 320°
2026-05-08 18:42 -6.39335 -58.18029 35894 ft 458 kts 320°
2026-05-08 18:43 -6.34288 -58.21955 35891 ft 459 kts 320°
2026-05-08 18:43 -6.29249 -58.25874 35896 ft 459 kts 320°
2026-05-08 18:44 -6.24186 -58.29810 35894 ft 459 kts 320°
2026-05-08 18:44 -6.19160 -58.33717 35895 ft 459 kts 320°
2026-05-08 18:45 -6.14101 -58.37648 35888 ft 460 kts 320°
2026-05-08 18:45 -6.09021 -58.41595 35892 ft 461 kts 320°
2026-05-08 18:46 -6.03949 -58.45534 35892 ft 461 kts 320°
2026-05-08 18:46 -5.98896 -58.49458 35892 ft 461 kts 320°
2026-05-08 18:47 -5.93816 -58.53402 35890 ft 460 kts 320°
2026-05-08 18:47 -5.88758 -58.57328 35890 ft 461 kts 320°
2026-05-08 18:48 -5.83691 -58.61260 35884 ft 461 kts 321°
2026-05-08 18:48 -5.78599 -58.65210 35889 ft 463 kts 321°
2026-05-08 18:49 -5.73492 -58.69171 35886 ft 462 kts 321°
2026-05-08 18:49 -5.68433 -58.73094 35887 ft 462 kts 321°
2026-05-08 18:50 -5.63334 -58.77047 35891 ft 462 kts 321°
2026-05-08 18:50 -5.58240 -58.80996 35885 ft 463 kts 321°
2026-05-08 18:51 -5.53138 -58.84949 35886 ft 462 kts 321°
2026-05-08 18:51 -5.48068 -58.88877 35883 ft 461 kts 321°
2026-05-08 18:52 -5.43017 -58.92789 35883 ft 461 kts 321°
2026-05-08 18:52 -5.37940 -58.96721 35884 ft 461 kts 321°
2026-05-08 18:53 -5.32842 -59.00668 35884 ft 461 kts 321°
2026-05-08 18:53 -5.27762 -59.04601 35878 ft 461 kts 321°
2026-05-08 18:54 -5.22683 -59.08531 35880 ft 461 kts 321°
2026-05-08 18:54 -5.17621 -59.12448 35867 ft 461 kts 321°
2026-05-08 18:55 -5.09994 -59.18348 35880 ft 461 kts 321°
2026-05-08 18:56 -5.04926 -59.22267 35881 ft 461 kts 321°
2026-05-08 18:56 -4.99868 -59.26177 35879 ft 461 kts 321°
2026-05-08 18:57 -4.94777 -59.30113 35876 ft 461 kts 321°
2026-05-08 18:57 -4.89715 -59.34026 35872 ft 461 kts 320°
2026-05-08 18:58 -4.84644 -59.37943 35869 ft 460 kts 320°
2026-05-08 18:58 -4.79589 -59.41849 35871 ft 460 kts 320°
2026-05-08 18:59 -4.74509 -59.45773 35870 ft 460 kts 320°
2026-05-08 18:59 -4.69446 -59.49683 35623 ft 454 kts 320°
2026-05-08 18:59 -4.66950 -59.51610 34957 ft 455 kts 320°
2026-05-08 19:00 -4.64421 -59.53562 34102 ft 460 kts 321°
2026-05-08 19:00 -4.61869 -59.55532 33222 ft 464 kts 321°
2026-05-08 19:00 -4.59330 -59.57492 32428 ft 466 kts 321°
2026-05-08 19:00 -4.56749 -59.59484 31664 ft 467 kts 321°
2026-05-08 19:01 -4.54169 -59.61476 30850 ft 469 kts 321°
2026-05-08 19:01 -4.51568 -59.63483 29984 ft 473 kts 322°
2026-05-08 19:01 -4.48782 -59.65242 28840 ft 473 kts 335°
2026-05-08 19:01 -4.45717 -59.66230 27725 ft 466 kts 352°
2026-05-08 19:02 -4.42479 -59.66530 26683 ft 469 kts 354°
2026-05-08 19:02 -4.39249 -59.66991 25651 ft 468 kts 352°
2026-05-08 19:02 -4.36028 -59.67490 24663 ft 465 kts 352°
2026-05-08 19:02 -4.32833 -59.67996 23762 ft 463 kts 353°
2026-05-08 19:03 -4.29641 -59.68507 22947 ft 464 kts 353°
2026-05-08 19:03 -4.26461 -59.69018 22256 ft 461 kts 352°
2026-05-08 19:03 -4.23308 -59.69526 21626 ft 457 kts 352°
2026-05-08 19:03 -4.20232 -59.70021 20997 ft 453 kts 352°
2026-05-08 19:04 -4.17132 -59.70520 20366 ft 450 kts 352°
2026-05-08 19:04 -4.14053 -59.71015 19738 ft 447 kts 352°
2026-05-08 19:04 -4.10989 -59.71509 19114 ft 444 kts 352°
2026-05-08 19:04 -4.07946 -59.71999 18494 ft 442 kts 352°
2026-05-08 19:05 -4.04914 -59.72487 17819 ft 440 kts 352°
2026-05-08 19:05 -4.01899 -59.72973 17169 ft 437 kts 352°
2026-05-08 19:05 -3.98924 -59.73452 16569 ft 426 kts 352°
2026-05-08 19:05 -3.96049 -59.73912 15997 ft 414 kts 352°
2026-05-08 19:06 -3.93245 -59.74361 15446 ft 403 kts 352°
2026-05-08 19:06 -3.90498 -59.74801 14903 ft 394 kts 351°
2026-05-08 19:06 -3.87830 -59.75228 14385 ft 385 kts 351°
2026-05-08 19:06 -3.85212 -59.75648 13877 ft 377 kts 351°
2026-05-08 19:07 -3.82632 -59.76062 13337 ft 373 kts 351°
2026-05-08 19:07 -3.80063 -59.76476 12783 ft 381 kts 351°
2026-05-08 19:07 -3.77432 -59.76900 12288 ft 384 kts 352°
2026-05-08 19:07 -3.74793 -59.77326 11795 ft 383 kts 351°
2026-05-08 19:08 -3.72187 -59.77746 11436 ft 374 kts 352°
2026-05-08 19:08 -3.69694 -59.78145 11257 ft 352 kts 352°
2026-05-08 19:08 -3.67345 -59.78520 11093 ft 332 kts 352°
2026-05-08 19:08 -3.65130 -59.78874 10928 ft 313 kts 352°
2026-05-08 19:09 -3.63031 -59.79209 10763 ft 296 kts 352°
2026-05-08 19:09 -3.61070 -59.79523 10627 ft 280 kts 352°
2026-05-08 19:09 -3.59187 -59.79824 10497 ft 269 kts 352°
2026-05-08 19:09 -3.57325 -59.80123 10390 ft 278 kts 352°
2026-05-08 19:10 -3.55390 -59.80435 10245 ft 285 kts 352°
2026-05-08 19:10 -3.53415 -59.80753 10164 ft 288 kts 353°
2026-05-08 19:10 -3.51429 -59.81073 9962 ft 288 kts 352°
2026-05-08 19:10 -3.49453 -59.81392 9744 ft 288 kts 352°
2026-05-08 19:11 -3.47476 -59.81711 9425 ft 289 kts 352°
2026-05-08 19:11 -3.45481 -59.82033 9098 ft 288 kts 352°
2026-05-08 19:11 -3.43530 -59.82348 8788 ft 287 kts 352°
2026-05-08 19:11 -3.41563 -59.82665 8487 ft 285 kts 352°
2026-05-08 19:12 -3.39609 -59.82980 8188 ft 283 kts 352°
2026-05-08 19:12 -3.37662 -59.83294 7889 ft 282 kts 352°
2026-05-08 19:12 -3.35722 -59.83606 7590 ft 281 kts 352°
2026-05-08 19:12 -3.33815 -59.83914 7295 ft 280 kts 352°
2026-05-08 19:13 -3.31896 -59.84223 6993 ft 279 kts 352°
2026-05-08 19:13 -3.29981 -59.84531 6706 ft 277 kts 352°
2026-05-08 19:13 -3.28074 -59.84838 6408 ft 276 kts 352°
2026-05-08 19:13 -3.26183 -59.85143 6108 ft 275 kts 352°
2026-05-08 19:14 -3.24301 -59.85447 5801 ft 274 kts 352°
2026-05-08 19:14 -3.22420 -59.85749 5527 ft 271 kts 352°
2026-05-08 19:14 -3.20582 -59.86046 5389 ft 264 kts 352°
2026-05-08 19:14 -3.18813 -59.86331 5248 ft 256 kts 352°
2026-05-08 19:15 -3.17084 -59.86609 5140 ft 247 kts 352°
2026-05-08 19:15 -3.15423 -59.86877 5077 ft 237 kts 352°
2026-05-08 19:15 -3.13814 -59.87115 5024 ft 231 kts 358°
2026-05-08 19:15 -3.12241 -59.87129 4931 ft 227 kts
2026-05-08 19:16 -3.10635 -59.87110 4616 ft 234 kts
2026-05-08 19:16 -3.08980 -59.87106 4161 ft 238 kts
2026-05-08 19:16 -3.07336 -59.87110 3818 ft 234 kts
2026-05-08 19:16 -3.05733 -59.87226 3501 ft 229 kts 344°
2026-05-08 19:17 -3.04462 -59.88101 3203 ft 224 kts 307°
2026-05-08 19:17 -3.03942 -59.89503 3000 ft 209 kts 274°
2026-05-08 19:17 -3.03919 -59.90882 2983 ft 189 kts 271°
2026-05-08 19:17 -3.03904 -59.92190 2990 ft 187 kts 271°
2026-05-08 19:18 -3.03893 -59.93440 2855 ft 170 kts 271°
2026-05-08 19:18 -3.03884 -59.94562 2679 ft 157 kts 270°
2026-05-08 19:18 -3.03881 -59.95668 2248 ft 159 kts 270°
2026-05-08 19:18 -3.03871 -59.96774 1785 ft 160 kts 270°
2026-05-08 19:19 -3.03863 -59.97907 1304 ft 162 kts 270°
2026-05-08 19:19 -3.03864 -59.99017 1065 ft 156 kts 270°
2026-05-08 19:19 -3.03875 -60.00076 841 ft 154 kts 269°
2026-05-08 19:19 -3.03859 -60.01154 675 ft 152 kts 268°
2026-05-08 19:20 -3.03850 -60.02204 518 ft 151 kts 266°
2026-05-08 19:20 -3.03864 -60.02545 477 ft 151 kts 266°
2026-05-08 19:20 -3.03860 -60.04260 275 ft 139 kts 268°
2026-05-08 19:20 -3.03860 -60.05043 272 ft 93 kts 270°
2026-05-08 19:21 -3.03859 -60.05661 272 ft 77 kts 270°
2026-05-08 19:21 -3.03858 -60.06083 274 ft 34 kts 270°
2026-05-08 19:21 -3.03744 -60.06168 272 ft 23 kts 22°
2026-05-08 19:21 -3.03690 -60.06035 272 ft 23 kts 92°
2026-05-08 19:22 -3.03691 -60.05872 272 ft 24 kts 90°
2026-05-08 19:22 -3.03691 -60.05697 272 ft 26 kts 90°
2026-05-08 19:22 -3.03690 -60.05510 272 ft 28 kts 87°
2026-05-08 19:22 -3.03664 -60.05315 272 ft 29 kts 76°
2026-05-08 19:23 -3.03610 -60.05115 272 ft 30 kts 75°
2026-05-08 19:23 -3.03522 -60.04919 272 ft 32 kts 46°
2026-05-08 19:23 -3.03370 -60.04772 272 ft 22 kts 57°
2026-05-08 19:23 -3.03291 -60.04720 272 ft 10 kts 26°
2026-05-08 19:24 -3.03264 -60.04707 272 ft 0 kts 25°